This is the latest recevied weather packets stored in our database for station/object OK2JV-13. If no packets are shown the sender has not sent any weather packets the latest 10 day(s).
| Time | Temp. | Humidity | Pressure | Rain* | Wind** | Luminosity | Snow |
|---|---|---|---|---|---|---|---|
| 1787926174 | 27.22° C | 40% | 1013.2 hPa | - | - | - | - |
| 1787925571 | 27.22° C | 40% | 1013 hPa | - | - | - | - |
| 1787924967 | 26.67° C | 40% | 1012.9 hPa | - | - | - | - |
| 1787924363 | 27.22° C | 40% | 1013.1 hPa | - | - | - | - |
| 1787923759 | 27.22° C | 40% | 1012.9 hPa | - | - | - | - |
| 1787923154 | 26.67° C | 40% | 1013 hPa | - | - | - | - |
| 1787922550 | 26.67° C | 40% | 1012.8 hPa | - | - | - | - |
| 1787921945 | 26.67° C | 40% | 1012.6 hPa | - | - | - | - |
| 1787921341 | 26.67° C | 41% | 1012.8 hPa | - | - | - | - |
| 1787920738 | 26.67° C | 40% | 1012.8 hPa | - | - | - | - |
| 1787920133 | 26.67° C | 41% | 1013.1 hPa | - | - | - | - |
| 1787919529 | 26.67° C | 40% | 1013.2 hPa | - | - | - | - |
| 1787918925 | 26.67° C | 41% | 1013.1 hPa | - | - | - | - |
| 1787918319 | 26.11° C | 41% | 1013.3 hPa | - | - | - | - |
| 1787917715 | 26.11° C | 41% | 1013.3 hPa | - | - | - | - |
| 1787917112 | 25.56° C | 41% | 1013.3 hPa | - | - | - | - |
| 1787916509 | 25.56° C | 41% | 1013.1 hPa | - | - | - | - |
| 1787915904 | 25.56° C | 41% | 1013.1 hPa | - | - | - | - |
| 1787915300 | 25.56° C | 42% | 1013.2 hPa | - | - | - | - |
| 1787914696 | 25° C | 42% | 1013.4 hPa | - | - | - | - |
| 1787914090 | 25° C | 42% | 1013.5 hPa | - | - | - | - |
| 1787913486 | 24.44° C | 42% | 1013.5 hPa | - | - | - | - |
| 1787912882 | 24.44° C | 43% | 1013.5 hPa | - | - | - | - |
| 1787912278 | 23.89° C | 43% | 1013.7 hPa | - | - | - | - |
| 1787911674 | 23.33° C | 44% | 1013.8 hPa | - | - | - | - |
* Rain since midnight (hover to see other rain measurements)
** Current wind speed in m/s (hover to see current wind gust speed)